Time,TemperatureF,DewpointF,PressureIn,WindDirection,WindDirectionDegrees,WindSpeedMPH,WindSpeedGustMPH,Humidity,HourlyPrecipIn,Conditions,Clouds,dailyrainin,SoftwareType,DateUTC
2013-02-04 00:00:00,42.4,40.3,30.24,ESE,112,0.0,0.0,92,0.00,,---,0.00,VWS V14.01,2013-02-04 08:00:00,
2013-02-04 00:05:00,42.4,40.3,30.24,ESE,112,0.0,0.0,92,0.00,,---,0.00,VWS V14.01,2013-02-04 08:05:00,
2013-02-04 00:10:00,42.4,40.3,30.24,ESE,112,0.0,0.0,92,0.00,,---,0.00,VWS V14.01,2013-02-04 08:10:00,
2013-02-04 00:15:00,42.3,40.1,30.24,ESE,112,0.0,0.0,92,0.00,,---,0.00,VWS V14.01,2013-02-04 08:15:00,
2013-02-04 00:20:00,42.3,40.1,30.24,ESE,112,0.0,0.0,92,0.00,,---,0.00,VWS V14.01,2013-02-04 08:20:00,
2013-02-04 00:25:00,42.3,40.1,30.24,ESE,112,0.0,0.0,92,0.00,,---,0.00,VWS V14.01,2013-02-04 08:25:00,
2013-02-04 00:30:00,42.1,39.9,30.24,ESE,112,0.0,0.0,92,0.00,,---,0.00,VWS V14.01,2013-02-04 08:30:00,
2013-02-04 00:35:00,41.9,39.8,30.24,ESE,112,0.0,0.0,92,0.00,,---,0.00,VWS V14.01,2013-02-04 08:35:00,
2013-02-04 00:40:00,41.9,39.8,30.24,ESE,112,0.0,0.0,92,0.00,,---,0.00,VWS V14.01,2013-02-04 08:40:00,
2013-02-04 00:45:00,42.1,40.2,30.24,ESE,112,0.0,0.0,93,0.00,,---,0.00,VWS V14.01,2013-02-04 08:45:00,
2013-02-04 00:50:00,42.1,40.2,30.24,ESE,112,0.0,0.0,93,0.00,,---,0.00,VWS V14.01,2013-02-04 08:50:00,
2013-02-04 00:55:00,41.7,39.8,30.24,ESE,112,0.0,0.0,93,0.00,,---,0.00,VWS V14.01,2013-02-04 08:55:00,
2013-02-04 01:00:00,41.7,39.6,30.24,ESE,112,0.0,0.0,92,0.00,,---,0.00,VWS V14.01,2013-02-04 09:00:00,
2013-02-04 01:05:00,41.5,39.4,30.24,ESE,112,0.0,0.0,92,0.00,,---,0.00,VWS V14.01,2013-02-04 09:05:00,
2013-02-04 01:10:00,41.5,39.4,30.24,SE,135,0.0,0.0,92,0.00,,---,0.00,VWS V14.01,2013-02-04 09:10:00,
2013-02-04 01:15:00,41.4,39.2,30.24,SE,135,0.0,0.0,92,0.00,,---,0.00,VWS V14.01,2013-02-04 09:15:00,
2013-02-04 01:20:00,41.4,39.2,30.24,SSE,158,0.0,0.0,92,0.00,,---,0.00,VWS V14.01,2013-02-04 09:20:00,
2013-02-04 01:25:00,41.2,39.3,30.24,SSE,158,0.0,0.0,93,0.00,,---,0.00,VWS V14.01,2013-02-04 09:25:00,
2013-02-04 01:30:00,41.2,39.3,30.24,SSE,158,0.0,0.0,93,0.00,,---,0.00,VWS V14.01,2013-02-04 09:30:00,
2013-02-04 01:35:00,41.2,39.3,30.24,SSE,158,0.0,0.0,93,0.00,,---,0.00,VWS V14.01,2013-02-04 09:35:00,
2013-02-04 01:40:00,41.0,39.1,30.24,SSE,158,0.0,0.0,93,0.00,,---,0.00,VWS V14.01,2013-02-04 09:40:00,
2013-02-04 01:45:00,40.8,39.0,30.24,SSE,158,0.0,0.0,93,0.00,,---,0.00,VWS V14.01,2013-02-04 09:45:00,
2013-02-04 01:50:00,40.6,38.8,30.24,SSE,158,0.0,0.0,93,0.00,,---,0.00,VWS V14.01,2013-02-04 09:50:00,
2013-02-04 01:55:00,40.6,38.8,30.24,SSE,158,0.0,0.0,93,0.00,,---,0.00,VWS V14.01,2013-02-04 09:55:00,
2013-02-04 02:00:00,40.6,38.8,30.24,SSE,158,0.0,0.0,93,0.00,,---,0.00,VWS V14.01,2013-02-04 10:00:00,
2013-02-04 02:05:00,40.6,38.8,30.24,SSE,158,0.0,0.0,93,0.00,,---,0.00,VWS V14.01,2013-02-04 10:05:00,
2013-02-04 02:10:00,40.6,39.0,30.24,SSE,158,0.0,0.0,94,0.00,,---,0.00,VWS V14.01,2013-02-04 10:10:00,
2013-02-04 02:15:00,40.6,39.0,30.24,SSE,158,0.0,0.0,94,0.00,,---,0.00,VWS V14.01,2013-02-04 10:15:00,
2013-02-04 02:20:00,40.8,39.2,30.24,SSE,158,0.0,0.0,94,0.00,,---,0.00,VWS V14.01,2013-02-04 10:20:00,
2013-02-04 02:25:00,40.8,39.2,30.24,SSE,158,0.0,0.0,94,0.00,,---,0.00,VWS V14.01,2013-02-04 10:25:00,
2013-02-04 02:31:00,40.8,39.2,30.24,SSE,158,0.0,0.0,94,0.00,,---,0.00,VWS V14.01,2013-02-04 10:31:00,
2013-02-04 02:36:00,40.6,39.0,30.24,SSE,158,0.0,0.0,94,0.00,,---,0.00,VWS V14.01,2013-02-04 10:36:00,
2013-02-04 02:41:00,40.6,39.0,30.24,SSE,158,0.0,0.0,94,0.00,,---,0.00,VWS V14.01,2013-02-04 10:41:00,
2013-02-04 02:46:00,40.6,39.0,30.24,SSE,158,0.0,0.0,94,0.00,,---,0.00,VWS V14.01,2013-02-04 10:46:00,
2013-02-04 02:51:00,40.6,39.0,30.21,SSE,158,0.0,0.0,94,0.00,,---,0.00,VWS V14.01,2013-02-04 10:51:00,
2013-02-04 02:56:00,40.6,39.0,30.21,SSE,158,0.0,0.0,94,0.00,,---,0.00,VWS V14.01,2013-02-04 10:56:00,
2013-02-04 03:01:00,40.8,39.2,30.21,SSE,158,0.0,0.0,94,0.00,,---,0.00,VWS V14.01,2013-02-04 11:01:00,
2013-02-04 03:06:00,40.8,39.2,30.21,South,180,1.1,1.1,94,0.00,,---,0.00,VWS V14.01,2013-02-04 11:06:00,
2013-02-04 03:11:00,41.0,39.4,30.21,SSE,158,2.0,2.0,94,0.00,,---,0.00,VWS V14.01,2013-02-04 11:11:00,
2013-02-04 03:16:00,41.0,39.4,30.21,SSE,158,0.0,2.0,94,0.00,,---,0.00,VWS V14.01,2013-02-04 11:16:00,
2013-02-04 03:21:00,40.8,39.5,30.21,SSE,158,0.0,0.0,95,0.00,,---,0.00,VWS V14.01,2013-02-04 11:21:00,
2013-02-04 03:26:00,40.6,39.3,30.21,SSE,158,0.0,0.0,95,0.00,,---,0.00,VWS V14.01,2013-02-04 11:26:00,
2013-02-04 03:31:00,40.5,39.1,30.21,SSE,158,0.0,0.0,95,0.00,,---,0.00,VWS V14.01,2013-02-04 11:31:00,
2013-02-04 03:36:00,40.3,39.0,30.18,South,180,0.0,0.0,95,0.00,,---,0.00,VWS V14.01,2013-02-04 11:36:00,
2013-02-04 03:41:00,40.3,39.0,30.18,South,180,0.0,0.0,95,0.00,,---,0.00,VWS V14.01,2013-02-04 11:41:00,
2013-02-04 03:46:00,40.3,39.0,30.18,SSW,202,0.0,0.0,95,0.00,,---,0.00,VWS V14.01,2013-02-04 11:46:00,
2013-02-04 03:51:00,40.3,39.0,30.18,SSW,202,0.0,0.0,95,0.00,,---,0.00,VWS V14.01,2013-02-04 11:51:00,
2013-02-04 03:56:00,40.5,39.1,30.18,SSE,158,1.6,1.6,95,0.00,,---,0.00,VWS V14.01,2013-02-04 11:56:00,
2013-02-04 04:01:00,40.5,39.1,30.18,SSE,158,2.0,2.0,95,0.00,,---,0.00,VWS V14.01,2013-02-04 12:01:00,
2013-02-04 04:06:00,40.3,39.0,30.18,SSE,158,0.0,2.0,95,0.00,,---,0.00,VWS V14.01,2013-02-04 12:06:00,
2013-02-04 04:11:00,40.3,39.0,30.18,SSE,158,0.0,0.0,95,0.00,,---,0.00,VWS V14.01,2013-02-04 12:11:00,
2013-02-04 04:16:00,40.1,38.8,30.18,SSE,158,0.0,0.0,95,0.00,,---,0.00,VWS V14.01,2013-02-04 12:16:00,
2013-02-04 04:21:00,40.1,38.8,30.18,SSE,158,0.0,0.0,95,0.00,,---,0.00,VWS V14.01,2013-02-04 12:21:00,
2013-02-04 04:26:00,39.9,38.9,30.18,SSE,158,0.0,0.0,96,0.00,,---,0.00,VWS V14.01,2013-02-04 12:26:00,
2013-02-04 04:32:00,39.7,38.7,30.18,SSE,158,1.6,1.6,96,0.00,,---,0.00,VWS V14.01,2013-02-04 12:32:00,
2013-02-04 04:37:00,39.7,38.7,30.18,SSE,158,2.0,2.0,96,0.00,,---,0.00,VWS V14.01,2013-02-04 12:37:00,
2013-02-04 04:42:00,39.6,38.5,30.18,SSE,158,0.9,0.9,96,0.00,,---,0.00,VWS V14.01,2013-02-04 12:42:00,
2013-02-04 04:47:00,39.6,38.5,30.18,SSE,158,0.9,0.9,96,0.00,,---,0.00,VWS V14.01,2013-02-04 12:47:00,
2013-02-04 04:52:00,39.2,38.2,30.18,SSE,158,0.9,0.9,96,0.00,,---,0.00,VWS V14.01,2013-02-04 12:52:00,
2013-02-04 04:57:00,39.2,38.2,30.18,SSE,158,0.9,0.9,96,0.00,,---,0.00,VWS V14.01,2013-02-04 12:57:00,
2013-02-04 05:02:00,39.0,38.0,30.18,SSE,158,0.0,2.0,96,0.00,,---,0.00,VWS V14.01,2013-02-04 13:02:00,
2013-02-04 05:07:00,38.8,37.8,30.18,SSE,158,0.0,2.0,96,0.00,,---,0.00,VWS V14.01,2013-02-04 13:07:00,
2013-02-04 05:12:00,38.8,37.8,30.18,SSE,158,1.1,1.1,96,0.00,,---,0.00,VWS V14.01,2013-02-04 13:12:00,
2013-02-04 05:17:00,38.8,37.8,30.18,SSE,158,0.0,1.1,96,0.00,,---,0.00,VWS V14.01,2013-02-04 13:17:00,
2013-02-04 05:22:00,38.7,37.6,30.18,SSE,158,0.0,0.0,96,0.00,,---,0.00,VWS V14.01,2013-02-04 13:22:00,
2013-02-04 05:27:00,38.7,37.6,30.18,SSE,158,0.0,0.0,96,0.00,,---,0.00,VWS V14.01,2013-02-04 13:27:00,
2013-02-04 05:32:00,38.7,37.6,30.18,SSE,158,0.0,0.0,96,0.00,,---,0.00,VWS V14.01,2013-02-04 13:32:00,
2013-02-04 05:37:00,38.5,37.4,30.18,SSE,158,0.0,0.0,96,0.00,,---,0.00,VWS V14.01,2013-02-04 13:37:00,
2013-02-04 05:42:00,38.5,37.4,30.18,SSE,158,0.0,0.0,96,0.00,,---,0.00,VWS V14.01,2013-02-04 13:42:00,
2013-02-04 05:47:00,38.3,37.5,30.18,SSE,158,1.1,1.1,97,0.00,,---,0.00,VWS V14.01,2013-02-04 13:47:00,
2013-02-04 05:52:00,38.3,37.5,30.15,SSE,158,1.1,1.1,97,0.00,,---,0.00,VWS V14.01,2013-02-04 13:52:00,
2013-02-04 05:57:00,38.1,37.3,30.15,SSE,158,0.9,1.1,97,0.00,,---,0.00,VWS V14.01,2013-02-04 13:57:00,
2013-02-04 06:02:00,38.1,37.3,30.15,SSE,158,1.3,1.3,97,0.00,,---,0.00,VWS V14.01,2013-02-04 14:02:00,
2013-02-04 06:07:00,38.1,37.3,30.15,SSE,158,1.3,1.3,97,0.00,,---,0.00,VWS V14.01,2013-02-04 14:07:00,
2013-02-04 06:12:00,37.9,37.2,30.15,SSE,158,1.6,1.6,97,0.00,,---,0.00,VWS V14.01,2013-02-04 14:12:00,
2013-02-04 06:17:00,37.9,37.2,30.15,SSE,158,1.6,1.6,97,0.00,,---,0.00,VWS V14.01,2013-02-04 14:17:00,
2013-02-04 06:22:00,37.9,37.2,30.15,SSE,158,1.6,1.6,97,0.00,,---,0.00,VWS V14.01,2013-02-04 14:22:00,
2013-02-04 06:27:00,38.1,37.3,30.15,SSE,158,0.0,1.6,97,0.00,,---,0.00,VWS V14.01,2013-02-04 14:27:00,
2013-02-04 06:32:00,37.9,37.2,30.15,SSE,158,0.0,0.0,97,0.00,,---,0.00,VWS V14.01,2013-02-04 14:32:00,
2013-02-04 06:37:00,37.9,37.2,30.15,SSE,158,0.0,0.0,97,0.00,,---,0.00,VWS V14.01,2013-02-04 14:37:00,
2013-02-04 06:42:00,37.9,37.2,30.15,SSE,158,0.0,0.0,97,0.00,,---,0.00,VWS V14.01,2013-02-04 14:42:00,
2013-02-04 06:47:00,37.8,37.0,30.15,SSE,158,0.0,0.0,97,0.00,,---,0.00,VWS V14.01,2013-02-04 14:47:00,
2013-02-04 06:52:00,37.8,37.0,30.18,SSE,158,0.9,2.5,97,0.00,,---,0.00,VWS V14.01,2013-02-04 14:52:00,
2013-02-04 06:57:00,37.8,37.0,30.18,SSE,158,0.0,2.5,97,0.00,,---,0.00,VWS V14.01,2013-02-04 14:57:00,
2013-02-04 07:02:00,37.6,36.8,30.18,SSE,158,0.0,0.0,97,0.00,,---,0.00,VWS V14.01,2013-02-04 15:02:00,
2013-02-04 07:08:00,37.6,36.8,30.18,SSE,158,0.0,0.0,97,0.00,,---,0.00,VWS V14.01,2013-02-04 15:08:00,
2013-02-04 07:13:00,37.6,36.8,30.18,SSE,158,0.0,0.0,97,0.00,,---,0.00,VWS V14.01,2013-02-04 15:13:00,
2013-02-04 07:18:00,37.6,36.8,30.15,SSE,158,1.1,1.1,97,0.00,,---,0.00,VWS V14.01,2013-02-04 15:18:00,
2013-02-04 07:23:00,37.4,36.6,30.15,SSE,158,0.0,0.0,97,0.00,,---,0.00,VWS V14.01,2013-02-04 15:23:00,
2013-02-04 07:28:00,37.4,36.6,30.15,SSE,158,0.0,0.0,97,0.00,,---,0.00,VWS V14.01,2013-02-04 15:28:00,
2013-02-04 07:33:00,37.4,36.6,30.15,SSE,158,0.0,0.0,97,0.00,,---,0.00,VWS V14.01,2013-02-04 15:33:00,
2013-02-04 07:38:00,37.2,36.5,30.15,SSE,158,0.0,0.0,97,0.00,,---,0.00,VWS V14.01,2013-02-04 15:38:00,
2013-02-04 07:43:00,37.2,36.7,30.15,SSE,158,0.0,0.0,98,0.00,,---,0.00,VWS V14.01,2013-02-04 15:43:00,
2013-02-04 07:48:00,37.2,36.5,30.15,SSE,158,0.0,0.0,97,0.00,,---,0.00,VWS V14.01,2013-02-04 15:48:00,
2013-02-04 07:53:00,37.4,36.6,30.15,SSE,158,2.2,2.2,97,0.00,,---,0.00,VWS V14.01,2013-02-04 15:53:00,
2013-02-04 07:58:00,37.6,36.8,30.15,SSE,158,0.0,2.2,97,0.00,,---,0.00,VWS V14.01,2013-02-04 15:58:00,
2013-02-04 08:03:00,37.6,36.8,30.15,SSE,158,1.6,1.6,97,0.00,,---,0.00,VWS V14.01,2013-02-04 16:03:00,
2013-02-04 08:08:00,37.6,36.8,30.15,SSE,158,0.9,1.6,97,0.00,,---,0.00,VWS V14.01,2013-02-04 16:08:00,
2013-02-04 08:13:00,37.6,36.8,30.15,SSE,158,0.0,0.0,97,0.00,,---,0.00,VWS V14.01,2013-02-04 16:13:00,
2013-02-04 08:18:00,37.8,37.0,30.15,SSE,158,0.0,1.6,97,0.00,,---,0.00,VWS V14.01,2013-02-04 16:18:00,
2013-02-04 08:23:00,37.9,37.2,30.15,SSE,158,0.0,0.0,97,0.00,,---,0.00,VWS V14.01,2013-02-04 16:23:00,
2013-02-04 08:28:00,38.1,37.3,30.15,SSE,158,1.1,2.0,97,0.00,,---,0.00,VWS V14.01,2013-02-04 16:28:00,
2013-02-04 08:33:00,38.5,37.7,30.15,SSE,158,2.0,2.0,97,0.00,,---,0.00,VWS V14.01,2013-02-04 16:33:00,
2013-02-04 08:38:00,38.7,37.9,30.15,SSE,158,0.9,2.0,97,0.00,,---,0.00,VWS V14.01,2013-02-04 16:38:00,
2013-02-04 08:43:00,38.8,38.3,30.15,SSE,158,0.9,0.9,98,0.00,,---,0.00,VWS V14.01,2013-02-04 16:43:00,
2013-02-04 08:48:00,38.8,38.3,30.15,SSE,158,0.0,1.1,98,0.00,,---,0.00,VWS V14.01,2013-02-04 16:48:00,
2013-02-04 08:53:00,39.2,38.4,30.15,SSE,158,0.0,2.5,97,0.00,,---,0.00,VWS V14.01,2013-02-04 16:53:00,
2013-02-04 08:58:00,39.4,38.6,30.15,SSE,158,0.0,2.5,97,0.00,,---,0.00,VWS V14.01,2013-02-04 16:58:00,
2013-02-04 09:03:00,39.6,38.8,30.15,SSE,158,0.0,0.0,97,0.00,,---,0.00,VWS V14.01,2013-02-04 17:03:00,
2013-02-04 09:08:00,39.7,39.0,30.15,SSE,158,0.0,0.0,97,0.00,,---,0.00,VWS V14.01,2013-02-04 17:08:00,
2013-02-04 09:13:00,39.9,39.1,30.15,SSE,158,0.0,1.3,97,0.00,,---,0.00,VWS V14.01,2013-02-04 17:13:00,
2013-02-04 09:18:00,40.1,39.3,30.15,SSE,158,0.0,1.3,97,0.00,,---,0.00,VWS V14.01,2013-02-04 17:18:00,
2013-02-04 09:23:00,40.3,39.5,30.15,SSE,158,0.0,1.3,97,0.00,,---,0.00,VWS V14.01,2013-02-04 17:23:00,
2013-02-04 09:28:00,40.6,40.1,30.15,SSE,158,1.6,1.6,98,0.00,,---,0.00,VWS V14.01,2013-02-04 17:28:00,
2013-02-04 09:33:00,41.0,40.2,30.15,SSE,158,1.3,1.3,97,0.00,,---,0.00,VWS V14.01,2013-02-04 17:33:00,
2013-02-04 09:38:00,41.2,40.4,30.15,SSE,158,0.0,1.3,97,0.00,,---,0.00,VWS V14.01,2013-02-04 17:38:00,
2013-02-04 09:43:00,41.7,40.9,30.15,SSE,158,1.1,2.0,97,0.00,,---,0.00,VWS V14.01,2013-02-04 17:43:00,
2013-02-04 09:48:00,41.7,40.9,30.15,South,180,0.0,2.0,97,0.00,,---,0.00,VWS V14.01,2013-02-04 17:48:00,
2013-02-04 09:53:00,42.1,41.3,30.15,SSE,158,0.0,0.9,97,0.00,,---,0.00,VWS V14.01,2013-02-04 17:53:00,
2013-02-04 09:58:00,42.3,41.5,30.15,SSE,158,0.0,0.9,97,0.00,,---,0.00,VWS V14.01,2013-02-04 17:58:00,
2013-02-04 10:03:00,42.6,41.8,30.15,SSE,158,0.0,0.0,97,0.00,,---,0.00,VWS V14.01,2013-02-04 18:03:00,
2013-02-04 10:08:00,43.0,42.2,30.15,SSE,158,0.0,0.0,97,0.00,,---,0.00,VWS V14.01,2013-02-04 18:08:00,
2013-02-04 10:13:00,43.0,42.2,30.15,SSE,158,0.9,0.9,97,0.00,,---,0.00,VWS V14.01,2013-02-04 18:13:00,
2013-02-04 10:18:00,43.2,42.4,30.15,South,180,0.0,1.1,97,0.00,,---,0.00,VWS V14.01,2013-02-04 18:18:00,
2013-02-04 10:23:00,43.3,42.5,30.15,SSE,158,0.0,1.1,97,0.00,,---,0.00,VWS V14.01,2013-02-04 18:23:00,
2013-02-04 10:29:00,43.7,42.9,30.15,SSE,158,0.0,1.3,97,0.00,,---,0.00,VWS V14.01,2013-02-04 18:29:00,
2013-02-04 10:34:00,43.9,43.1,30.15,South,180,0.0,0.0,97,0.00,,---,0.00,VWS V14.01,2013-02-04 18:34:00,
2013-02-04 10:39:00,44.1,43.3,30.15,SSW,202,0.0,0.0,97,0.00,,---,0.00,VWS V14.01,2013-02-04 18:39:00,
2013-02-04 10:44:00,44.1,43.3,30.15,South,180,0.0,0.0,97,0.00,,---,0.00,VWS V14.01,2013-02-04 18:44:00,
2013-02-04 10:49:00,44.4,43.6,30.15,South,180,0.0,0.9,97,0.00,,---,0.00,VWS V14.01,2013-02-04 18:49:00,
2013-02-04 10:54:00,44.2,43.4,30.15,SSW,202,0.0,0.0,97,0.00,,---,0.00,VWS V14.01,2013-02-04 18:54:00,
2013-02-04 10:59:00,44.2,43.4,30.15,SSW,202,0.0,0.0,97,0.00,,---,0.00,VWS V14.01,2013-02-04 18:59:00,
2013-02-04 11:04:00,44.8,44.0,30.15,South,180,0.0,0.9,97,0.00,,---,0.00,VWS V14.01,2013-02-04 19:04:00,
2013-02-04 11:09:00,45.0,44.2,30.15,SSE,158,0.9,2.7,97,0.00,,---,0.00,VWS V14.01,2013-02-04 19:09:00,
2013-02-04 11:14:00,45.3,44.5,30.15,SSW,202,0.0,1.1,97,0.00,,---,0.00,VWS V14.01,2013-02-04 19:14:00,
2013-02-04 11:19:00,45.7,44.9,30.15,SSW,202,0.0,1.6,97,0.00,,---,0.00,VWS V14.01,2013-02-04 19:19:00,
2013-02-04 11:24:00,46.2,45.4,30.15,SSW,202,0.0,0.0,97,0.00,,---,0.00,VWS V14.01,2013-02-04 19:24:00,
2013-02-04 11:29:00,46.6,45.8,30.15,SSE,158,0.0,0.9,97,0.00,,---,0.00,VWS V14.01,2013-02-04 19:29:00,
2013-02-04 11:34:00,47.1,46.3,30.15,South,180,2.0,2.0,97,0.00,,---,0.00,VWS V14.01,2013-02-04 19:34:00,
2013-02-04 11:39:00,47.5,46.7,30.15,SE,135,1.6,3.1,97,0.00,,---,0.00,VWS V14.01,2013-02-04 19:39:00,
2013-02-04 11:44:00,47.8,46.8,30.15,SSE,158,1.3,2.0,96,0.00,,---,0.00,VWS V14.01,2013-02-04 19:44:00,
2013-02-04 11:49:00,48.4,47.3,30.12,South,180,0.0,2.0,96,0.00,,---,0.00,VWS V14.01,2013-02-04 19:49:00,
2013-02-04 11:54:00,48.7,47.4,30.12,SSE,158,2.2,2.2,95,0.00,,---,0.00,VWS V14.01,2013-02-04 19:54:00,
2013-02-04 11:59:00,49.1,47.5,30.12,SW,225,0.0,2.2,94,0.00,,---,0.00,VWS V14.01,2013-02-04 19:59:00,
2013-02-04 12:04:00,49.3,47.3,30.12,SSE,158,0.0,0.0,93,0.00,,---,0.00,VWS V14.01,2013-02-04 20:04:00,
2013-02-04 12:09:00,50.0,47.5,30.12,ESE,112,0.0,0.0,91,0.00,,---,0.00,VWS V14.01,2013-02-04 20:09:00,
2013-02-04 12:14:00,50.0,46.3,30.12,NNW,338,3.1,3.1,87,0.00,,---,0.00,VWS V14.01,2013-02-04 20:14:00,
2013-02-04 12:20:00,50.0,46.0,30.12,WSW,248,1.1,3.1,86,0.00,,---,0.00,VWS V14.01,2013-02-04 20:20:00,
2013-02-04 12:25:00,50.0,46.3,30.12,NNW,338,0.0,0.9,87,0.00,,---,0.00,VWS V14.01,2013-02-04 20:25:00,
2013-02-04 12:30:00,50.4,47.0,30.12,SW,225,3.8,3.8,88,0.00,,---,0.00,VWS V14.01,2013-02-04 20:30:00,
2013-02-04 12:35:00,50.5,47.1,30.12,South,180,0.0,3.8,88,0.00,,---,0.00,VWS V14.01,2013-02-04 20:35:00,
2013-02-04 12:40:00,50.4,46.0,30.12,WSW,248,2.0,3.8,85,0.00,,---,0.00,VWS V14.01,2013-02-04 20:40:00,
2013-02-04 12:45:00,50.4,45.7,30.12,WSW,248,2.5,2.5,84,0.00,,---,0.00,VWS V14.01,2013-02-04 20:45:00,
2013-02-04 12:50:00,50.7,45.8,30.12,WSW,248,1.3,3.1,83,0.00,,---,0.00,VWS V14.01,2013-02-04 20:50:00,
2013-02-04 12:55:00,50.9,46.2,30.12,WSW,248,0.0,3.8,84,0.00,,---,0.00,VWS V14.01,2013-02-04 20:55:00,
2013-02-04 13:00:00,51.1,46.1,30.12,SW,225,0.0,3.8,83,0.00,,---,0.00,VWS V14.01,2013-02-04 21:00:00,
2013-02-04 13:05:00,51.4,46.5,30.12,SW,225,0.0,1.3,83,0.00,,---,0.00,VWS V14.01,2013-02-04 21:05:00,
2013-02-04 13:10:00,51.3,45.6,30.12,SSW,202,1.6,1.6,81,0.00,,---,0.00,VWS V14.01,2013-02-04 21:10:00,
2013-02-04 13:15:00,51.1,45.1,30.12,SSW,202,0.0,3.4,80,0.00,,---,0.00,VWS V14.01,2013-02-04 21:15:00,
2013-02-04 13:20:00,50.9,44.6,30.12,SW,225,0.0,0.0,79,0.00,,---,0.00,VWS V14.01,2013-02-04 21:20:00,
2013-02-04 13:25:00,50.9,44.3,30.12,WSW,248,2.9,3.8,78,0.00,,---,0.00,VWS V14.01,2013-02-04 21:25:00,
2013-02-04 13:30:00,51.1,44.8,30.12,WSW,248,2.0,3.8,79,0.00,,---,0.00,VWS V14.01,2013-02-04 21:30:00,
2013-02-04 13:35:00,51.1,44.8,30.09,WSW,248,1.1,2.0,79,0.00,,---,0.00,VWS V14.01,2013-02-04 21:35:00,
2013-02-04 13:40:00,50.9,45.0,30.09,SW,225,0.0,0.0,80,0.00,,---,0.00,VWS V14.01,2013-02-04 21:40:00,
2013-02-04 13:45:00,50.7,44.5,30.09,WSW,248,0.0,0.0,79,0.00,,---,0.00,VWS V14.01,2013-02-04 21:45:00,
2013-02-04 13:50:00,50.5,44.3,30.09,SW,225,1.1,1.1,79,0.00,,---,0.00,VWS V14.01,2013-02-04 21:50:00,
2013-02-04 13:55:00,50.4,44.1,30.09,SSW,202,0.0,1.3,79,0.00,,---,0.00,VWS V14.01,2013-02-04 21:55:00,
2013-02-04 14:00:00,50.4,44.1,30.09,WSW,248,2.9,2.9,79,0.00,,---,0.00,VWS V14.01,2013-02-04 22:00:00,
2013-02-04 14:05:00,50.2,43.9,30.09,SSW,202,0.0,2.9,79,0.00,,---,0.00,VWS V14.01,2013-02-04 22:05:00,
2013-02-04 14:10:00,50.0,43.4,30.09,WSW,248,0.0,2.5,78,0.00,,---,0.00,VWS V14.01,2013-02-04 22:10:00,
2013-02-04 14:16:00,50.2,43.6,30.09,WSW,248,0.0,2.5,78,0.00,,---,0.00,VWS V14.01,2013-02-04 22:16:00,
2013-02-04 14:21:00,50.2,43.9,30.09,WSW,248,0.0,1.1,79,0.00,,---,0.00,VWS V14.01,2013-02-04 22:21:00,
2013-02-04 14:26:00,50.0,43.8,30.09,WSW,248,3.4,3.4,79,0.00,,---,0.00,VWS V14.01,2013-02-04 22:26:00,
2013-02-04 14:31:00,50.0,43.8,30.09,WSW,248,0.0,0.0,79,0.00,,---,0.00,VWS V14.01,2013-02-04 22:31:00,
2013-02-04 14:36:00,49.8,43.6,30.06,SSW,202,0.0,2.0,79,0.00,,---,0.00,VWS V14.01,2013-02-04 22:36:00,
2013-02-04 14:41:00,49.8,43.6,30.06,WSW,248,0.0,0.0,79,0.00,,---,0.00,VWS V14.01,2013-02-04 22:41:00,
2013-02-04 14:46:00,49.8,43.6,30.06,SSW,202,0.0,2.0,79,0.00,,---,0.00,VWS V14.01,2013-02-04 22:46:00,
2013-02-04 14:51:00,49.6,43.4,30.06,SSW,202,0.0,0.0,79,0.00,,---,0.00,VWS V14.01,2013-02-04 22:51:00,
2013-02-04 14:56:00,49.6,43.4,30.06,SSE,158,0.0,1.6,79,0.00,,---,0.00,VWS V14.01,2013-02-04 22:56:00,
2013-02-04 15:01:00,49.5,43.2,30.06,SSW,202,0.0,0.0,79,0.00,,---,0.00,VWS V14.01,2013-02-04 23:01:00,
2013-02-04 15:06:00,49.6,43.4,30.06,SW,225,1.1,1.1,79,0.00,,---,0.00,VWS V14.01,2013-02-04 23:06:00,
2013-02-04 15:11:00,49.5,43.2,30.06,SSE,158,0.0,1.1,79,0.00,,---,0.00,VWS V14.01,2013-02-04 23:11:00,
2013-02-04 15:16:00,49.3,43.0,30.06,WSW,248,2.7,3.1,79,0.00,,---,0.00,VWS V14.01,2013-02-04 23:16:00,
2013-02-04 15:21:00,49.1,42.9,30.06,WSW,248,2.7,2.7,79,0.00,,---,0.00,VWS V14.01,2013-02-04 23:21:00,
2013-02-04 15:26:00,48.9,42.7,30.06,WSW,248,2.7,3.4,79,0.00,,---,0.00,VWS V14.01,2013-02-04 23:26:00,
2013-02-04 15:31:00,48.9,43.0,30.06,SSW,202,0.0,0.0,80,0.00,,---,0.00,VWS V14.01,2013-02-04 23:31:00,
2013-02-04 15:36:00,48.7,42.9,30.06,SW,225,0.0,3.1,80,0.00,,---,0.00,VWS V14.01,2013-02-04 23:36:00,
2013-02-04 15:41:00,48.7,42.9,30.06,WSW,248,0.0,0.0,80,0.00,,---,0.00,VWS V14.01,2013-02-04 23:41:00,
2013-02-04 15:46:00,48.6,43.0,30.06,WSW,248,0.0,3.8,81,0.00,,---,0.00,VWS V14.01,2013-02-04 23:46:00,
2013-02-04 15:51:00,48.6,43.0,30.06,SSW,202,0.0,0.0,81,0.00,,---,0.00,VWS V14.01,2013-02-04 23:51:00,
2013-02-04 15:56:00,48.4,42.8,30.06,SW,225,0.0,0.0,81,0.00,,---,0.00,VWS V14.01,2013-02-04 23:56:00,
2013-02-04 16:01:00,48.4,42.8,30.06,WSW,248,0.0,0.9,81,0.00,,---,0.00,VWS V14.01,2013-02-05 00:01:00,
2013-02-04 16:06:00,48.4,42.8,30.06,WSW,248,0.0,0.9,81,0.00,,---,0.00,VWS V14.01,2013-02-05 00:06:00,
2013-02-04 16:11:00,48.4,42.8,30.06,SW,225,0.0,0.0,81,0.00,,---,0.00,VWS V14.01,2013-02-05 00:11:00,
2013-02-04 16:16:00,48.2,42.7,30.06,SW,225,0.0,0.0,81,0.00,,---,0.00,VWS V14.01,2013-02-05 00:16:00,
2013-02-04 16:21:00,48.2,42.7,30.06,WSW,248,0.0,2.5,81,0.00,,---,0.00,VWS V14.01,2013-02-05 00:21:00,
2013-02-04 16:26:00,48.2,42.7,30.06,SSW,202,0.0,2.5,81,0.00,,---,0.00,VWS V14.01,2013-02-05 00:26:00,
2013-02-04 16:31:00,48.0,42.8,30.06,WSW,248,0.0,0.0,82,0.00,,---,0.00,VWS V14.01,2013-02-05 00:31:00,
2013-02-04 16:36:00,48.0,42.8,30.06,WSW,248,0.0,0.0,82,0.00,,---,0.00,VWS V14.01,2013-02-05 00:36:00,
2013-02-04 16:41:00,48.0,42.8,30.06,SW,225,0.0,0.0,82,0.00,,---,0.00,VWS V14.01,2013-02-05 00:41:00,
2013-02-04 16:46:00,47.8,42.6,30.06,WSW,248,0.0,0.0,82,0.00,,---,0.00,VWS V14.01,2013-02-05 00:46:00,
2013-02-04 16:52:00,47.8,42.6,30.06,SW,225,1.6,1.6,82,0.00,,---,0.00,VWS V14.01,2013-02-05 00:52:00,
2013-02-04 16:57:00,47.7,42.4,30.06,WSW,248,0.0,1.6,82,0.00,,---,0.00,VWS V14.01,2013-02-05 00:57:00,
2013-02-04 17:02:00,47.7,42.4,30.06,SW,225,0.0,0.0,82,0.00,,---,0.00,VWS V14.01,2013-02-05 01:02:00,
2013-02-04 17:07:00,47.5,42.3,30.06,South,180,0.0,2.0,82,0.00,,---,0.00,VWS V14.01,2013-02-05 01:07:00,
2013-02-04 17:12:00,47.5,42.3,30.06,WSW,248,0.0,0.0,82,0.00,,---,0.00,VWS V14.01,2013-02-05 01:12:00,
2013-02-04 17:17:00,47.5,42.3,30.06,WSW,248,0.0,0.0,82,0.00,,---,0.00,VWS V14.01,2013-02-05 01:17:00,
2013-02-04 17:22:00,47.3,42.1,30.06,SSW,202,1.3,1.6,82,0.00,,---,0.00,VWS V14.01,2013-02-05 01:22:00,
2013-02-04 17:27:00,47.3,42.1,30.06,SW,225,0.0,1.6,82,0.00,,---,0.00,VWS V14.01,2013-02-05 01:27:00,
2013-02-04 17:32:00,47.1,41.9,30.06,SW,225,0.0,0.0,82,0.00,,---,0.00,VWS V14.01,2013-02-05 01:32:00,
2013-02-04 17:37:00,47.1,41.9,30.03,SSW,202,0.9,0.9,82,0.00,,---,0.00,VWS V14.01,2013-02-05 01:37:00,
2013-02-04 17:43:00,47.1,41.9,30.03,SSW,202,0.0,4.3,82,0.00,,---,0.00,VWS V14.01,2013-02-05 01:43:00,
2013-02-04 17:49:00,47.1,41.9,30.03,SSE,158,0.0,4.3,82,0.00,,---,0.00,VWS V14.01,2013-02-05 01:49:00,
2013-02-04 17:56:00,46.9,42.0,30.03,SSE,158,0.0,3.1,83,0.00,,---,0.00,VWS V14.01,2013-02-05 01:56:00,
2013-02-04 18:01:00,46.9,42.0,30.03,SSE,158,0.0,1.1,83,0.00,,---,0.00,VWS V14.01,2013-02-05 02:01:00,
2013-02-04 18:07:00,46.9,42.0,30.03,ESE,112,0.0,1.1,83,0.00,,---,0.00,VWS V14.01,2013-02-05 02:07:00,
2013-02-04 18:12:00,46.9,42.0,30.03,SE,135,0.0,0.9,83,0.00,,---,0.00,VWS V14.01,2013-02-05 02:12:00,
2013-02-04 18:17:00,46.8,41.9,30.03,ESE,112,0.0,2.2,83,0.00,,---,0.00,VWS V14.01,2013-02-05 02:17:00,
2013-02-04 18:22:00,46.8,41.9,30.03,ESE,112,0.0,0.9,83,0.00,,---,0.00,VWS V14.01,2013-02-05 02:22:00,
2013-02-04 18:27:00,46.8,42.2,30.03,SE,135,0.0,0.9,84,0.00,,---,0.00,VWS V14.01,2013-02-05 02:27:00,
2013-02-04 18:32:00,46.8,42.2,30.03,SSE,158,2.0,2.0,84,0.00,,---,0.00,VWS V14.01,2013-02-05 02:32:00,
2013-02-04 18:37:00,46.8,42.2,30.03,SSE,158,0.0,2.0,84,0.00,,---,0.00,VWS V14.01,2013-02-05 02:37:00,
2013-02-04 18:42:00,46.8,42.2,30.03,SE,135,0.0,0.0,84,0.00,,---,0.00,VWS V14.01,2013-02-05 02:42:00,
2013-02-04 18:47:00,46.8,42.2,30.03,South,180,0.0,0.0,84,0.00,,---,0.00,VWS V14.01,2013-02-05 02:47:00,
2013-02-04 18:52:00,46.8,42.2,30.03,South,180,0.0,0.0,84,0.00,,---,0.00,VWS V14.01,2013-02-05 02:52:00,
2013-02-04 18:57:00,46.8,42.2,30.03,SSW,202,0.0,2.7,84,0.00,,---,0.00,VWS V14.01,2013-02-05 02:57:00,
2013-02-04 19:02:00,46.8,42.2,30.03,SSE,158,0.0,0.0,84,0.00,,---,0.00,VWS V14.01,2013-02-05 03:02:00,
2013-02-04 19:08:00,46.8,42.2,30.03,South,180,0.0,1.3,84,0.00,,---,0.00,VWS V14.01,2013-02-05 03:08:00,
2013-02-04 19:13:00,46.8,42.2,30.03,SSE,158,0.0,0.0,84,0.00,,---,0.00,VWS V14.01,2013-02-05 03:13:00,
2013-02-04 19:18:00,46.8,42.5,30.03,South,180,0.0,0.0,85,0.00,,---,0.00,VWS V14.01,2013-02-05 03:18:00,
2013-02-04 19:23:00,46.8,42.5,30.03,SSE,158,2.0,2.9,85,0.00,,---,0.00,VWS V14.01,2013-02-05 03:23:00,
2013-02-04 19:28:00,46.8,42.5,30.03,SSW,202,1.3,3.4,85,0.00,,---,0.00,VWS V14.01,2013-02-05 03:28:00,
2013-02-04 19:33:00,46.8,42.5,30.03,South,180,0.0,1.6,85,0.00,,---,0.00,VWS V14.01,2013-02-05 03:33:00,
2013-02-04 19:38:00,46.8,42.5,30.03,SSW,202,0.0,1.6,85,0.00,,---,0.00,VWS V14.01,2013-02-05 03:38:00,
2013-02-04 19:43:00,46.8,42.5,30.03,SW,225,0.0,1.3,85,0.00,,---,0.00,VWS V14.01,2013-02-05 03:43:00,
2013-02-04 19:48:00,46.8,42.5,30.03,SSE,158,0.0,1.3,85,0.00,,---,0.00,VWS V14.01,2013-02-05 03:48:00,
2013-02-04 19:53:00,46.8,42.5,30.03,SW,225,0.0,4.0,85,0.00,,---,0.00,VWS V14.01,2013-02-05 03:53:00,
2013-02-04 19:58:00,46.9,43.0,30.03,SSE,158,1.1,4.0,86,0.00,,---,0.00,VWS V14.01,2013-02-05 03:58:00,
2013-02-04 20:03:00,46.9,43.0,30.03,SSW,202,1.6,3.6,86,0.00,,---,0.00,VWS V14.01,2013-02-05 04:03:00,
2013-02-04 20:08:00,46.9,43.0,30.03,SSW,202,0.0,3.6,86,0.00,,---,0.00,VWS V14.01,2013-02-05 04:08:00,
2013-02-04 20:13:00,47.1,42.8,30.03,SSW,202,2.2,4.3,85,0.00,,---,0.00,VWS V14.01,2013-02-05 04:13:00,
2013-02-04 20:18:00,47.1,42.8,30.03,SSW,202,0.0,4.3,85,0.00,,---,0.00,VWS V14.01,2013-02-05 04:18:00,
2013-02-04 20:23:00,47.1,42.5,30.03,WSW,248,2.5,3.1,84,0.00,,---,0.00,VWS V14.01,2013-02-05 04:23:00,
2013-02-04 20:28:00,47.1,42.5,30.03,SSE,158,3.4,3.8,84,0.00,,---,0.00,VWS V14.01,2013-02-05 04:28:00,
2013-02-04 20:33:00,47.1,42.5,30.03,SSE,158,0.0,3.6,84,0.00,,---,0.00,VWS V14.01,2013-02-05 04:33:00,
2013-02-04 20:38:00,47.3,42.7,30.03,WSW,248,0.9,3.6,84,0.00,,---,0.00,VWS V14.01,2013-02-05 04:38:00,
2013-02-04 20:44:00,47.1,42.5,30.03,SSW,202,2.9,3.1,84,0.00,,---,0.00,VWS V14.01,2013-02-05 04:44:00,
2013-02-04 20:49:00,47.1,42.5,30.03,SW,225,0.0,3.1,84,0.00,,---,0.00,VWS V14.01,2013-02-05 04:49:00,
2013-02-04 20:54:00,47.1,42.5,30.03,SSW,202,0.0,3.4,84,0.00,,---,0.00,VWS V14.01,2013-02-05 04:54:00,
2013-02-04 20:59:00,47.1,42.5,30.03,SW,225,2.0,3.6,84,0.00,,---,0.00,VWS V14.01,2013-02-05 04:59:00,
2013-02-04 21:00:00,47.1,42.5,30.03,WSW,248,1.1,3.6,84,0.00,,---,0.00,VWS V14.01,2013-02-05 05:00:00,
2013-02-04 21:02:00,47.1,42.5,30.03,SSE,158,0.9,2.2,84,0.00,,---,0.00,VWS V14.01,2013-02-05 05:02:00,
2013-02-04 21:03:00,47.1,42.2,30.03,SSW,202,3.1,3.1,83,0.00,,---,0.00,VWS V14.01,2013-02-05 05:03:00,
2013-02-04 21:08:00,47.1,42.2,30.03,WSW,248,1.3,3.1,83,0.00,,---,0.00,VWS V14.01,2013-02-05 05:08:00,
2013-02-04 21:13:00,47.1,42.2,30.03,South,180,1.1,2.7,83,0.00,,---,0.00,VWS V14.01,2013-02-05 05:13:00,
2013-02-04 21:18:00,47.1,42.2,30.03,SSW,202,2.2,3.4,83,0.00,,---,0.00,VWS V14.01,2013-02-05 05:18:00,
2013-02-04 21:23:00,47.1,41.9,30.03,SSW,202,2.0,3.4,82,0.00,,---,0.00,VWS V14.01,2013-02-05 05:23:00,
2013-02-04 21:28:00,47.1,41.9,30.03,SSE,158,3.8,3.8,82,0.00,,---,0.00,VWS V14.01,2013-02-05 05:28:00,
2013-02-04 21:33:00,47.1,41.9,30.03,SSW,202,3.1,3.1,82,0.00,,---,0.00,VWS V14.01,2013-02-05 05:33:00,
2013-02-04 21:38:00,47.1,41.9,30.03,SSW,202,2.9,3.1,82,0.00,,---,0.00,VWS V14.01,2013-02-05 05:38:00,
2013-02-04 21:44:00,47.1,41.6,30.03,SSW,202,1.3,2.7,81,0.00,,---,0.00,VWS V14.01,2013-02-05 05:44:00,
2013-02-04 21:49:00,47.1,41.6,30.03,SSW,202,0.0,2.7,81,0.00,,---,0.00,VWS V14.01,2013-02-05 05:49:00,
2013-02-04 21:54:00,47.1,41.6,30.03,SW,225,0.0,2.7,81,0.00,,---,0.00,VWS V14.01,2013-02-05 05:54:00,
2013-02-04 21:59:00,47.1,41.6,30.03,SSW,202,3.4,3.4,81,0.00,,---,0.00,VWS V14.01,2013-02-05 05:59:00,
2013-02-04 22:04:00,47.1,41.6,30.03,SSW,202,1.6,2.7,81,0.00,,---,0.00,VWS V14.01,2013-02-05 06:04:00,
2013-02-04 22:09:00,47.1,41.6,30.03,WSW,248,2.5,2.7,81,0.00,,---,0.00,VWS V14.01,2013-02-05 06:09:00,
2013-02-04 22:14:00,47.1,41.6,30.03,SE,135,1.3,1.3,81,0.00,,---,0.00,VWS V14.01,2013-02-05 06:14:00,
2013-02-04 22:19:00,47.1,41.6,30.03,SE,135,1.6,2.0,81,0.00,,---,0.00,VWS V14.01,2013-02-05 06:19:00,
2013-02-04 22:24:00,47.1,41.3,30.03,SSE,158,2.5,3.1,80,0.00,,---,0.00,VWS V14.01,2013-02-05 06:24:00,
2013-02-04 22:29:00,47.1,41.3,30.03,SSW,202,2.2,3.6,80,0.00,,---,0.00,VWS V14.01,2013-02-05 06:29:00,
2013-02-04 22:34:00,47.1,41.3,30.03,SSW,202,1.3,3.6,80,0.00,,---,0.00,VWS V14.01,2013-02-05 06:34:00,
2013-02-04 22:39:00,47.1,41.3,30.03,SSE,158,1.3,3.6,80,0.00,,---,0.00,VWS V14.01,2013-02-05 06:39:00,
2013-02-04 22:44:00,47.3,41.5,30.03,SSE,158,3.1,5.4,80,0.00,,---,0.00,VWS V14.01,2013-02-05 06:44:00,
2013-02-04 22:49:00,47.3,41.1,30.03,SSW,202,2.2,5.4,79,0.00,,---,0.00,VWS V14.01,2013-02-05 06:49:00,
2013-02-04 22:54:00,47.3,41.1,30.03,WSW,248,1.6,3.4,79,0.00,,---,0.00,VWS V14.01,2013-02-05 06:54:00,
2013-02-04 22:59:00,47.3,41.1,30.03,SSW,202,0.0,3.4,79,0.00,,---,0.00,VWS V14.01,2013-02-05 06:59:00,
2013-02-04 23:04:00,47.3,41.1,30.03,SSW,202,2.7,4.0,79,0.00,,---,0.00,VWS V14.01,2013-02-05 07:04:00,
2013-02-04 23:09:00,47.3,41.1,30.03,SSW,202,3.4,4.0,79,0.00,,---,0.00,VWS V14.01,2013-02-05 07:09:00,
2013-02-04 23:15:00,47.3,41.1,30.03,West,270,2.5,3.4,79,0.00,,---,0.00,VWS V14.01,2013-02-05 07:15:00,
2013-02-04 23:20:00,47.3,40.8,30.03,SSW,202,1.3,3.4,78,0.00,,---,0.00,VWS V14.01,2013-02-05 07:20:00,
2013-02-04 23:25:00,47.3,40.5,30.03,SSW,202,2.7,5.8,77,0.00,,---,0.00,VWS V14.01,2013-02-05 07:25:00,
2013-02-04 23:30:00,47.3,40.5,30.03,North,0,2.0,5.8,77,0.00,,---,0.00,VWS V14.01,2013-02-05 07:30:00,
2013-02-04 23:35:00,47.3,40.5,30.03,SSW,202,3.4,3.4,77,0.00,,---,0.00,VWS V14.01,2013-02-05 07:35:00,
2013-02-04 23:40:00,47.3,40.5,30.03,SSE,158,1.6,3.4,77,0.00,,---,0.00,VWS V14.01,2013-02-05 07:40:00,
2013-02-04 23:45:00,47.3,40.5,30.03,SW,225,5.4,5.4,77,0.00,,---,0.00,VWS V14.01,2013-02-05 07:45:00,
2013-02-04 23:50:00,47.3,40.5,30.03,SSW,202,5.4,5.4,77,0.00,,---,0.00,VWS V14.01,2013-02-05 07:50:00,
2013-02-04 23:55:00,47.3,40.5,30.03,SSW,202,2.7,2.7,77,0.00,,---,0.00,VWS V14.01,2013-02-05 07:55:00,